Regional Weather Roundup
Issued by NWS Upton, NY

Current Version | Previous Version | Graphics & Text | Print | Product List | Glossary Off
Versions: 1 2 3 4 5 6 7 8 9 10 11 12 13 14 15 16 17 18 19 20 21 22 23 24 25 26 27 28 29 30 31 32 33 34 35 36 37 38 39 40 41 42 43 44 45 46 47 48 49 50

553
ASUS41 KOKX 291805
RWROKX

REGIONAL WEATHER ROUNDUP
NATIONAL WEATHER SERVICE NEW YORK NY
200 PM EDT SUN MAY 29 2016

NOTE: "FAIR" INDICATES FEW OR NO CLOUDS BELOW 12,000 FEET WITH NO
SIGNIFICANT WEATHER AND/OR OBSTRUCTIONS TO VISIBILITY.

NYZ071-072-176-178-NJZ106-104-291900-
NEW YORK CITY METRO AREA


CITY           SKY/WX    TMP DP  RH WIND       PRES   REMARKS
CENTRAL PARK   SUNNY     85  61  44 SW8       30.13F
LAGUARDIA APRT PTSUNNY   85  66  53 SE14      30.11S
KENNEDY INTL   PTSUNNY   77  60  55 S12       30.13F
NEWARK/LIBERTY PTSUNNY   85  61  44 E15G21    30.10S
BRNX BOT. GARD   N/A     82  61  47 S7        30.13R
TETERBORO      SUNNY     88  59  37 S12G18    30.08F
$$

NYZ177-179-078>081-291900-
LONG ISLAND NEW YORK

CITY           SKY/WX    TMP DP  RH WIND       PRES   REMARKS
FARMINGDALE    MOSUNNY   80  56  43 SW12      30.14S
ISLIP          PTSUNNY   78  61  55 S9        30.14S
SHIRLEY        MOSUNNY   77  65  66 S13       30.16R
RIVERHEAD        N/A     84  63  48 W3        30.12F
WESTHAMPTON    MOSUNNY   74  64  71 SW12      30.17S
EAST HAMPTON   FAIR      75  64  68 SW10      30.14F
MONTAUK POINT    N/A     72  64  76 S7        30.16F
$$

NYZ052-065-067-291900-
HUDSON VALLEY

CITY           SKY/WX    TMP DP  RH WIND       PRES   REMARKS
WHITE PLAINS   MOSUNNY   84  60  44 S10G17    30.11F
NEWBURGH       MOSUNNY   88  70  55 SW12      30.09F HX  92
MONTGOMERY     MOSUNNY   90  71  53 SW14      30.06F HX  96
POUGHKEEPSIE   MOSUNNY   90  66  45 S14       30.05F HX  92
ALBANY         CLOUDY    86  67  52 S12       30.04F
$$

NJZ001-105-106-008-010-013-015-019>022-104-291900-
NEW JERSEY

CITY           SKY/WX    TMP DP  RH WIND       PRES   REMARKS
NEWARK/LIBERTY PTSUNNY   85  61  44 E15G21    30.10S
TETERBORO      SUNNY     88  59  37 S12G18    30.08F
CALDWELL       SUNNY     89  63  41 CALM      30.09F HX  90
MORRISTOWN     MOSUNNY   88  63  42 SW10G17   30.10F
SOMERVILLE     SUNNY     86  65  49 S7        30.07F
SUSSEX         MOSUNNY   88  66  48 SW9       30.08F HX  90
ANDOVER          N/A     87  63  44 SW8       30.10F
TRENTON        SUNNY     86  62  44 SW9       30.10F
MILLVILLE      MOSUNNY   81  67  62 S7        30.13F
ATLANTIC CITY  MOSUNNY   81  68  64 S14G20    30.14S
WRIGHTSTOWN    SUNNY     88  54  30 W10       30.08F
TOMS RIVER     SUNNY     88  63  42 S12G21    30.12S
BELMAR         SUNNY     82  63  52 SE13      30.13F
$$

PAZ047>061-062-071-291900-
EASTERN PENNSYLVANIA

CITY           SKY/WX    TMP DP  RH WIND       PRES   REMARKS
PHILADELPHIA   PTSUNNY   86  49  27 S9        30.10F
ALLENTOWN      MOSUNNY   88  63  43 S13       30.09F
SCRANTON       PTSUNNY   87  63  44 SW9G23    30.07F
$$

CTZ002-004>006-009-010-012-RIZ004-006-007-MAZ004-011-015-291900-
SOUTHERN NEW ENGLAND
 IN CT

CITY           SKY/WX    TMP DP  RH WIND       PRES   REMARKS
BRADLEY INTL   CLOUDY    90  66  45 S8        30.07F HX  92
HARTFORD       CLOUDY    91  64  40 S15       30.08F HX  92
DANBURY        SUNNY     85  63  47 S13G21    30.11F
WTRBRY/OXFORD  PTSUNNY   84  64  51 S14G20    30.15S
BRIDGEPORT     PTSUNNY   78  62  57 E12       30.12F
MERIDEN        MOSUNNY   86  62  44 S12G20    30.10F
NEW HAVEN      MOSUNNY   81  63  54 SE9       30.12F
CHESTER        FAIR      81  63  54 S9        30.14F
GROTON         CLOUDY    78  64  61 E8        30.14F
WILLIMANTIC    MOSUNNY   89  64  43 S7        30.11F HX  90

 IN RI

CITY           SKY/WX    TMP DP  RH WIND       PRES   REMARKS
PROVIDENCE     PTSUNNY   78  63  59 NE6       30.16F
BLOCK ISLAND   SUNNY     71  63  75 SW13      30.17F
WESTERLY       MOSUNNY   77  56  48 E8        30.16F

 IN MA

CITY           SKY/WX    TMP DP  RH WIND       PRES   REMARKS
BOSTON         CLOUDY    59  54  83 NE7       30.21F
WORCESTER      CLOUDY    65  58  78 E8        30.19F
WESTFIELD      CLOUDY    85  68  56 E6        30.09F
PROVINCETOWN   PTSUNNY   61  55  81 NE9       30.19F
NANTUCKET      SUNNY     72  62  71 VRB5      30.17F
$$

ANZ330-335-338-340-345-350-353-355-291900-
COASTAL MARINE OBSERVATIONS


STATION/POSITION TIME  SKY/WX   TEMP    WIND        PRES    VSBY  WAVE
                                AIR SEA DIR/SP/G                  HT/PER
                 (UTC)          (F)     (DEG/KT/KT) (MB)    (MI)  (FT/S)
NY HARB ENTRANCE 1650            60 59  180/ 12/ 14 1020.1          2/ 8
20S FIRE ISLAND  1650            60 61  200/ 10/ 12 1020.7          2/ 8
GREAT SOUTH BAY  1700            66 71  210/  8/ 10   N/A
23 SSW MONTAUK P 1750            60 60  200/  8/ 10 1020.8          3/ 8
15 E BARNEGAT LI 1722               62                N/A           2/ 8
HUDSON CANYON    1650            65 62              1021.6          3/ 7
KINGS POINT      1700            75 63              1019.8
EXECUTION ROCKS  NOT AVBL
CENTRAL LI SOUND NOT AVBL
EASTERN LI SOUND 1700            62 56  120/  6/  8   N/A
ROBBINS REEF     1700            71     180/ 15/ 16 1019.2
$$


>>>>>>>>>>>>>>>>>>>>>>>>>>>> KEY <<<<<<<<<<<<<<<<<<<<<<<<<<<
>                                                          <
>     SKY/WX - SKY CONDITION/PRESENT WEATHER               <
>     TMP    - TEMPERATURE IN FAHRENHEIT                   <
>     DP     - DEWPOINT IN FAHRENHEIT                      <
>     RH     - RELATIVE HUMIDITY IN PERCENT                <
>     WIND   - DIRECTION AND SPEED IN MPH                  <
>     PRES   - MEAN SEA LEVEL PRESSURE IN INCHES OF HG     <
>     WCI    - WIND CHILL INDEX                            <
>     VSB    - VISIBILITY IN MILES                         <
>     HX     - HEAT INDEX                                  <
>     TC     - TEMPERATURE IN CELSIUS                      <
>     VRB    - VARIABLE WIND DIRECTION                     <
>                                                          <
>>>>>>>>>>>>>>>>>>>>>>>>>>>> KEY <<<<<<<<<<<<<<<<<<<<<<<<<<<






USA.gov is the U.S. government's official web portal to all federal, state and local government web resources and services.